Location: Bli��� Lhota
(48.7570°N, 14.0120°E)
Time: 06:22:53
(UTC+00:00)

Cosmos 2251 Rocket - Pass Details

Date: 18 September 2020
Orbit: 765 x 792 km, 74.0° (Epoch: 27 October)

Event Time Altitude Azimuth Distance (km) Brightness Sun altitude
Rises 20:06:07 0° 340° (NNW) 3,302 7.7 -27.6°
Reaches altitude 10° 20:08:40 10° 347° (NNW) 2,367 6.7 -27.9°
Enters shadow 20:12:49 39° 31° (NNE) 1,181 4.4 -28.5°
